Flight Track Log - Related Links

Times and Time Zones

All times are in EDT time to prevent confusion due to time zone crossing. See the EJA929 flight status page for this flight to view local times or setup timezone preferences in your user account.

Time Position Orientation Groundspeed Altitude Reporting Facility
EDT Latitude Longitude Course Direction KTS MPH feet Rate Location/Type
Thu 06:08:11 PM 30.7211 -87.9494 314° West 257 296 4,900  Level Houston Center
Thu 06:09:13 PM 30.7831 -87.9867 333° Northwest 277 319 4,900 1,161 Level Houston Center
Thu 06:10:15 PM 30.8294 -88.0603 306° West 280 322 7,300 2,634 Climbing Houston Center
Thu 06:11:16 PM 30.9081 -88.1308 322° Northwest 301 346 10,300 2,439 Climbing Houston Center
Thu 06:12:00 PM 31.1145 -88.5216 314° West  Level FlightAware Approximate
Thu 06:12:18 PM 30.9772 -88.2008 319° Northwest 330 380 12,300  Level Houston Center
Thu 06:13:00 PM 31.1891 -88.6133 314° West  Level FlightAware Approximate
Thu 06:13:20 PM 31.0486 -88.2906 313° West 346 398 14,400  Level Houston Center
Thu 06:14:22 PM 31.1161 -88.3756 313° West 353 406 16,500 1,839 Climbing Houston Center
Thu 06:15:24 PM 31.1825 -88.4589 313° West 351 404 18,200 1,488 Climbing Houston Center
Thu 06:16:27 PM 31.2522 -88.5475 313° West 367 422 19,600 1,355 Climbing Houston Center
Thu 06:17:28 PM 31.3250 -88.6389 313° West 381 438 21,000 1,366 Climbing Houston Center
Thu 06:18:30 PM 31.3989 -88.7322 313° West 392 451 22,400 1,403 Climbing Houston Center
Thu 06:19:32 PM 31.4742 -88.8275 313° West 401 461 23,900 1,597 Climbing Houston Center
Thu 06:20:34 PM 31.5647 -88.9433 313° West 405 466 25,700 1,597 Climbing Houston Center
Thu 06:21:36 PM 31.6422 -89.0417 313° West 410 472 27,200 1,452 Climbing Houston Center
Thu 06:22:38 PM 31.7183 -89.1392 313° West 408 470 28,700 1,452 Climbing Houston Center
Thu 06:23:40 PM 31.8114 -89.2231 323° Northwest 421 484 30,200 1,452 Climbing Houston Center
Thu 06:24:42 PM 31.9053 -89.3036 324° Northwest 419 482 31,700 1,532 Climbing Houston Center
Thu 06:25:14 PM 31.9622 -89.3533 323° Northwest 424 488 32,600 1,565 Climbing Memphis Center
Thu 06:26:14 PM 32.0589 -89.4333 325° Northwest 424 488 34,100 1,350 Climbing Memphis Center
Thu 06:27:14 PM 32.1533 -89.5231 321° Northwest 424 488 35,300 1,100 Climbing Memphis Center
Thu 06:28:14 PM 32.2044 -89.6553 295° West 429 494 36,300 1,000 Climbing Memphis Center
Thu 06:29:14 PM 32.2281 -89.8047 281° West 439 505 37,300 1,000 Climbing Memphis Center
Thu 06:30:14 PM 32.2517 -89.9569 280° West 457 526 38,300 950 Climbing Memphis Center
Thu 06:31:14 PM 32.2708 -90.1142 278° West 478 550 39,200 850 Climbing Memphis Center
Thu 06:32:14 PM 32.2961 -90.2689 281° West 484 557 40,000 400 Climbing Memphis Center
Thu 06:33:14 PM 32.3192 -90.4311 280° West 489 563 40,000  Level Memphis Center
Thu 06:34:14 PM 32.3419 -90.5933 279° West 500 575 40,000  Level Memphis Center
Thu 06:35:14 PM 32.3664 -90.7608 280° West 512 589 40,000  Level Memphis Center
Thu 06:36:14 PM 32.3908 -90.9281 280° West 517 595 40,000  Level Memphis Center
Thu 06:37:14 PM 32.4150 -91.0956 280° West 522 601 40,000  Level Memphis Center
Thu 06:39:30 PM 32.4719 -91.4744 280° West 516 594 40,000  Level Fort Worth Center
Thu 06:40:30 PM 32.4944 -91.6431 279° West 521 600 40,000  Level Fort Worth Center
Thu 06:41:30 PM 32.5186 -91.8114 280° West 526 605 40,000  Level Fort Worth Center
Thu 06:42:30 PM 32.5408 -91.9800 279° West 526 605 40,000  Level Fort Worth Center
Thu 06:43:30 PM 32.5625 -92.1486 279° West 526 605 40,000  Level Fort Worth Center
Thu 06:44:30 PM 32.5861 -92.3197 279° West 526 605 40,000  Level Fort Worth Center
Thu 06:45:30 PM 32.5889 -92.4872 271° West 526 605 40,000  Level Fort Worth Center
Thu 06:46:29 PM 32.5606 -92.6244 256° West 514 592 40,000  Level Fort Worth Center
Thu 06:47:30 PM 32.5203 -92.8261 257° West 523 602 40,000  Level Fort Worth Center
Thu 06:48:30 PM 32.4761 -92.9983 253° West 534 615 40,000  Level Fort Worth Center
Thu 06:49:30 PM 32.4297 -93.1606 251° West 534 615 40,000  Level Fort Worth Center
Thu 06:50:30 PM 32.3850 -93.3272 252° West 534 615 40,000  Level Fort Worth Center
Thu 06:51:30 PM 32.3383 -93.4942 252° West 541 623 40,000  Level Fort Worth Center
Thu 06:52:29 PM 32.2953 -93.6581 253° West 535 616 40,000  Level Fort Worth Center
Thu 06:53:29 PM 32.2500 -93.8294 253° West 535 616 40,000  Level Fort Worth Center
Thu 06:54:29 PM 32.2044 -93.9933 252° West 535 616 40,000  Level Fort Worth Center
Thu 06:55:29 PM 32.1672 -94.1642 256° West 535 616 40,000  Level Fort Worth Center
Thu 06:56:29 PM 32.1486 -94.3364 263° West 535 616 40,000  Level Fort Worth Center
Thu 06:57:29 PM 32.1486 -94.5083 270° West 535 616 40,000 -550 Level Fort Worth Center
Thu 06:58:29 PM 32.1608 -94.6797 275° West 530 610 38,900 -1,000 Descending Fort Worth Center
Thu 06:59:29 PM 32.1747 -94.8511 276° West 535 616 38,000 -550 Descending Fort Worth Center
Thu 07:00:29 PM 32.1864 -95.0225 275° West 535 616 37,800 -1,150 Descending Fort Worth Center
Thu 07:01:29 PM 32.1981 -95.1964 275° West 535 616 35,700 -2,800 Descending Fort Worth Center
Thu 07:02:29 PM 32.2094 -95.3706 274° West 535 616 32,200 -3,650 Descending Fort Worth Center
Thu 07:03:29 PM 32.2206 -95.5619 274° West 535 616 28,400 -3,067 Descending Fort Worth Center
Thu 07:05:29 PM 32.2708 -95.8753 281° West 488 562 23,000 -3,300 Descending Fort Worth Center
Thu 07:06:29 PM 32.3222 -95.9972 297° West 469 540 18,500 -4,400 Descending Fort Worth Center
Thu 07:07:29 PM 32.3758 -96.1219 297° West 413 475 14,200 -3,650 Descending Fort Worth Center
Thu 07:08:29 PM 32.4331 -96.1950 313° West 354 407 11,200 -2,650 Descending Fort Worth Center
Thu 07:09:29 PM 32.5006 -96.2778 314° West 323 372 8,900 -1,650 Descending Fort Worth Center
Thu 07:10:29 PM 32.5511 -96.3389 314° West 304 350 7,900 -1,300 Descending Fort Worth Center
Thu 07:11:29 PM 32.6186 -96.4144 317° Northwest 299 344 6,300 -1,550 Descending Fort Worth Center
Thu 07:12:29 PM 32.6692 -96.4706 317° Northwest 294 338 4,800 -1,150 Descending Fort Worth Center
Thu 07:13:29 PM 32.7303 -96.5392 317° Northwest 276 318 4,000 -400 Descending Fort Worth Center
Thu 07:14:29 PM 32.7847 -96.6006 317° Northwest 268 308 4,000 -350 Level Fort Worth Center
Thu 07:15:29 PM 32.8353 -96.6667 312° West 273 314 3,300 -638 Descending Fort Worth Center
Thu 07:16:03 PM 32.8667 -96.7000 318° Northwest 255 293 3,000 -191 Descending Dallas / Fort Worth TRACON
Thu 07:17:03 PM 32.8833 -96.7667 287° West 228 262 3,000 -56 Level Dallas / Fort Worth TRACON
Thu 07:17:51 PM 32.9000 -96.8333 287° West 218 251 2,900 -667 Descending Dallas / Fort Worth TRACON
Thu 07:18:51 PM 32.9000 -96.8833 270° West 164 189 1,800 -1,100 Descending Dallas / Fort Worth TRACON
Thu 07:19:51 PM 32.8667 -96.8667 157° South 121 139 700 -1,100 Descending Dallas / Fort Worth TRACON
Thu 07:24:00 PM 32.6879 -96.8681 180° South  Level Estimated
Thu 07:31:00 PM 32.6809 -96.8682 180° South  Level Estimated
Thu 07:32:00 PM 32.6809 -96.8682 287° West  Level Estimated

Login

Don't have an account? Register now (free) for customized features, flight alerts, and more!